Weather History for KGSH - April, 2013

Change the Weather History Date:

Thursday, April 4, 2013

  Actual Average Record
Temperature  
Mean Temperature 40 °F -  
Max Temperature 55 °F 54 °F 75 °F (1997)
Min Temperature 24 °F 34 °F 19 °F (1982)
Degree Days  
Heating Degree Days 26    
Moisture  
Dew Point 18 °F    
Average Humidity 45    
Maximum Humidity 75    
Minimum Humidity 22    
Precipitation  
Precipitation 0.00 in - - ()
Sea Level Pressure  
Sea Level Pressure 30.16 in    
Wind  
Wind Speed 4 mph (SSW)    
Max Wind Speed 10 mph    
Max Gust Speed 16 mph    
Visibility 10 miles    
Events      
Averages and records for this station are not official NWS values.
T = Trace of Precipitation, MM = Missing Value Source: NWS Daily Summary

Daily Weather History Graph

Daily Weather History Graph

Search for Another Location

Airport or City:

Trip Planner

Search our weather history database for the weather conditions in past years. The results will help you decide how hot, cold, wet, or windy it might be!

Date:

Astronomy

Apr. 04, 2013 Rise Set
Actual Time 7:20 AM EDT 8:11 PM EDT
Civil Twilight 6:52 AM EDT 8:40 PM EDT
Nautical Twilight 6:19 AM EDT 9:13 PM EDT
Astronomical Twilight 5:44 AM EDT 9:48 PM EDT
Moon 3:51 AM EDT (4/4) 2:25 PM EDT (4/4)
Length of Visible Light 13h 47m
Length of Day
12h 51m
Waning Crescent, 34% of the Moon is Illuminated
Apr 4
Waning Crescent
Apr 10
New
Apr 18
First Quarter
Apr 25
Full
May 2
Last Quarter

Hourly Weather History & Observations

Time (EDT) Temp. Windchill Dew Point Humidity Pressure Visibility Wind Dir Wind Speed Gust Speed Precip Events Conditions
12:53 AM 27.0 °F 23.0 °F 16.0 °F 63% 30.35 in 10.0 mi North 3.5 mph - N/A   Clear
1:53 AM 26.1 °F - 18.0 °F 71% 30.35 in 10.0 mi Calm Calm - N/A   Clear
2:53 AM 24.1 °F - 17.1 °F 75% 30.34 in 10.0 mi Calm Calm - N/A   Clear
3:53 AM 25.0 °F 20.7 °F 16.0 °F 69% 30.32 in 10.0 mi SE 3.5 mph - N/A   Clear
4:53 AM 25.0 °F 20.7 °F 16.0 °F 69% 30.30 in 10.0 mi SE 3.5 mph - N/A   Clear
5:53 AM 24.1 °F 19.7 °F 16.0 °F 71% 30.29 in 10.0 mi SE 3.5 mph - N/A   Clear
6:53 AM 27.0 °F 20.5 °F 14.0 °F 58% 30.27 in 10.0 mi SE 5.8 mph - N/A   Clear
7:53 AM 28.9 °F 21.9 °F 16.0 °F 58% 30.25 in 10.0 mi SE 6.9 mph - N/A   Clear
8:53 AM 33.1 °F 28.7 °F 19.0 °F 56% 30.25 in 10.0 mi SE 4.6 mph - N/A   Clear
9:53 AM 37.9 °F 33.5 °F 17.1 °F 43% 30.22 in 10.0 mi South 5.8 mph - N/A   Clear
10:53 AM 43.0 °F 40.3 °F 18.0 °F 37% 30.22 in 10.0 mi SSW 4.6 mph - N/A   Clear
11:53 AM 46.9 °F - 17.1 °F 30% 30.19 in 10.0 mi WSW 4.6 mph - N/A   Clear
12:53 PM 48.9 °F - 16.0 °F 27% 30.16 in 10.0 mi South 6.9 mph - N/A   Clear
1:53 PM 51.1 °F - 16.0 °F 25% 30.12 in 10.0 mi West 4.6 mph - N/A   Clear
2:53 PM 52.0 °F - 16.0 °F 24% 30.09 in 10.0 mi West 5.8 mph 16.1 mph N/A   Clear
3:53 PM 54.0 °F - 16.0 °F 22% 30.06 in 10.0 mi WSW 10.4 mph - N/A   Clear
4:53 PM 55.0 °F - 18.0 °F 23% 30.04 in 10.0 mi West 9.2 mph 16.1 mph N/A   Clear
5:53 PM 55.0 °F - 17.1 °F 23% 30.01 in 10.0 mi WSW 10.4 mph - N/A   Clear
6:53 PM 55.0 °F - 17.1 °F 23% 30.01 in 10.0 mi WSW 8.1 mph - N/A   Clear
7:53 PM 50.0 °F - 18.0 °F 28% 30.00 in 10.0 mi WSW 6.9 mph - N/A   Clear
8:53 PM 46.9 °F - 18.0 °F 32% 30.00 in 9.0 mi Calm Calm - N/A   Clear
9:53 PM 42.1 °F 40.2 °F 21.9 °F 45% 30.00 in 9.0 mi SSW 3.5 mph - N/A   Clear
10:53 PM 39.9 °F - 21.9 °F 49% 29.99 in 8.0 mi Calm Calm - N/A   Scattered Clouds
11:53 PM 37.0 °F 34.5 °F 26.1 °F 65% 29.98 in 7.0 mi South 3.5 mph - N/A   Mostly Cloudy